CZ-6A DEB

Satellite information

Favourite Embed

Satellite Type and Status

DEBRISIN ORBIT

Key statistics

Satellite CZ-6A DEB at a glance.

Uptime

1129

Days in orbit

Revolutions

≈ 14.7

Per day

Orbit

SSO

Sun Synchronous Orbit

Inclination

98.6

Latest

Satellite identification and parameters

Extended collection of information and parameters for CZ-6A DEB.

Object identification

Identified? True

Debris? True

Object name: CZ-6A DEB

International designator: 2022-151KY

Object number (NORAD): 54548

Object ID (CCSDS): 54548

Country: PEOPLES REPUBLIC OF CHINA (PRC)

Current information (Y/N): Y

RCS size: SMALL

Orbital parameters

Period: 97.954 minutes

Inclination: 98.6012 deg

SMA: 7038.953 km

Apoapsis: 685.275 km

Periapsis: 636.36 km

RAAN: 28.7817 deg

Eccentricy: 0.0034746

Argument of periapsis: 129.0883 deg

Mean anomaly: 231.3421 deg

Mean motion: 14.70079041 rev/day

Mean motion (dot): 0.00023954 rev/day2

B* drag term: 0.0039468349 1/REarth

Two-line elements (TLE)

Creation date: Dec. 14, 2025, 3:07 a.m.

Reference frame: TEME

Reference center: EARTH

Epoch: Dec. 13, 2025, 1:33 p.m. UTC

TLE line 0: 0 CZ-6A DEB

TLE line 1: 1 54548U 22151KY 25347.56497665 .00023954 00000-0 39468-2 0 9991

TLE line 2: 2 54548 98.6012 28.7817 0034746 129.0883 231.3421 14.70079041162729

Live tracking on map

Real-time ground track for satellite CZ-6A DEB.

In-orbit conjunctions

A list of the most updated potential collisions computed for object CZ-6A DEB.

Target Orbit TCA Probability of collision Miss distance Type
KSLV-II R/B SSO 2025-06-14 01:49:34 0.0001431004 719.0 (m) ROCKET BODY
CZ-4C R/B LEO 2024-08-19 01:59:34 0.0003242802 151.0 (m) ROCKET BODY

Associated space launch

Chinese satellite reported for atmospheric/ocean/environmental/spatial parameter research purposes, details TBD.

CZ-6A DEB was lifted into orbit during the mission ‘Long March 6A | Yunhai 3’, on board a Long March 6A space rocket.

The launch took place on Nov. 11, 2022, 10:52 p.m. from Launch Complex 9A.

For more information about the launch, click the button.

Launch to space Long March 6A | Yunhai 3
Long March 6A | Yunhai 3

Agency: N/A

Status: Launch Successful

Launch date: Nov. 11, 2022, 10:52 p.m. UTC

Rocket: Long March 6A

Launch pad: Launch Complex 9A

Location: Taiyuan Satellite Launch Center, People's Republic of China

...

Latest news about this satellite

There are no fresh news available about this satellite. Check back as we update our databases every day.


Newsletter sign-up

Weekly statistics, charts and insights to help you stay on top of the space industry.